This demonstration page uses our WeatherBlox Daily Observations layout. Learn more.

Left ArrowRight Arrow

Hourly Observations for August 25, 2022

Temp ( °F °C ) Dew Point ( °F °C ) Humidity (%) Winds ( mph kmh ) Pressure ( in mb ) Visibility ( mi km ) Precip ( " mm )
12:52 am 00:52 Mostly Clear 71 21.7 67 19.4 87 87 Calm 30.00 1016 10 16 0.00 0.00
1:17 am 01:17 Partly Cloudy with Thunderstorms 71 21.7 68 20 90 90 N 15 24 30.02 1016 10 16 0.00 0.00
1:52 am 01:52 Mostly Cloudy with Thunderstorms 75 23.9 68 20 79 79 E 3 6 30.00 1016 10 16 0.00 0.00
2:03 am 02:03 Mostly Cloudy 76 24.4 67 19.4 74 74 Calm 29.99 1015 10 16 0.00 0.00
2:52 am 02:52 Mostly Cloudy 71 21.7 65 18.3 81 81 N 3 6 30.00 1016 10 16 0.00 0.00
3:22 am 03:22 Cloudy with Thunderstorms 70 21.1 64 17.8 81 81 N 5 7 30.02 1017 10 16 0.00 0.00
3:52 am 03:52 Mostly Cloudy with Thunderstorms 72 22.2 65 18.3 79 79 ENE 8 13 30.01 1016 10 16 0.01 0.13
4:10 am 04:10 Mostly Cloudy 72 22.2 66 18.9 82 82 S 3 6 29.99 1016 10 16 0.01 0.13
4:52 am 04:52 Partly Cloudy 70 21.1 67 19.4 90 90 Calm 30.01 1016 10 16 0.01 0.13
5:52 am 05:52 Mostly Cloudy 68 20 67 19.4 96 96 N 5 7 30.02 1017 10 16 0.00 0.00
6:05 am 06:05 Mostly Cloudy with Thunderstorms 68 20 66 18.9 93 93 N 8 13 30.03 1017 10 16 0.01 0.13
6:40 am 06:40 Mostly Cloudy with Thunderstorms 68 20 68 20 100 100 Calm 30.04 1017 10 16 0.01 0.13
6:52 am 06:52 Cloudy with Thunderstorms 69 20.6 68 20 96 96 WNW 10 17 30.06 1018 6 10 0.01 0.13
6:59 am 06:59 Windy with Storms Likely 69 20.6 68 20 96 96 NW 20 31 30.09 1019 1 2 0.01 0.13
7:09 am 07:09 Cloudy with Strong Thunderstorms 69 20.6 69 20.6 100 100 NNW 6 9 30.08 1019 2 3 0.30 7.62
7:14 am 07:14 Cloudy with Thunderstorms 69 20.6 69 20.6 100 100 NW 5 7 30.07 1018 3 5 0.36 9.14
7:43 am 07:43 Cloudy with Thunderstorms 69 20.6 67 19.4 93 93 ENE 5 7 30.07 1018 7 11 0.42 10.67
7:44 am 07:44 Mostly Cloudy with Nearby Thunderstorms 69 20.6 67 19.4 93 93 ENE 5 7 30.07 1018 10 16 0.42 10.67
7:52 am 07:52 Mostly Cloudy with Nearby Thunderstorms 69 20.6 67 19.4 93 93 ESE 3 6 30.07 1018 10 16 0.42 10.67
8:09 am 08:09 Mostly Cloudy with Heavy Rain 69 20.6 67 19.4 93 93 Calm 30.07 1018 6 10 0.01 0.25
8:52 am 08:52 Mostly Cloudy 70 21.1 68 20 93 93 N 7 11 30.07 1018 10 16 0.04 1.02
9:40 am 09:40 Mostly Cloudy 73 22.8 70 21.1 90 90 N 3 6 30.07 1018 10 16 0.00 0.00
9:52 am 09:52 Mostly Cloudy 75 23.9 70 21.1 84 84 N 7 11 30.08 1019 10 16 0.00 0.00
9:59 am 09:59 Mostly Cloudy 74 23.3 70 21.1 87 87 NNE 6 9 30.07 1018 10 16 0.00 0.00
10:17 am 10:17 Mostly Cloudy 75 23.9 69 20.6 82 82 NNE 7 11 30.06 1018 10 16 0.00 0.00
10:44 am 10:44 Mostly Cloudy 76 24.4 69 20.6 79 79 NNE 3 6 30.07 1018 10 16 0.00 0.00
10:52 am 10:52 Mostly Cloudy 76 24.4 69 20.6 79 79 NNE 5 7 30.09 1019 10 16 0.00 0.00
11:52 am 11:52 Mostly Cloudy 80 26.7 70 21.1 71 71 NNE 5 7 30.09 1019 10 16 0.00 0.00
12:52 pm 12:52 Partly Cloudy 81 27.2 70 21.1 69 69 NW 7 11 30.07 1018 10 16 0.00 0.00
1:52 pm 13:52 Partly Cloudy 84 28.9 69 20.6 61 61 N 5 7 30.04 1017 10 16 0.00 0.00
2:52 pm 14:52 Partly Cloudy 86 30 70 21.1 59 59 VRB 3 6 30.04 1017 10 16 0.00 0.00
3:52 pm 15:52 Mostly Cloudy 86 30 68 20 55 55 Calm 30.03 1017 10 16 0.00 0.00
4:52 pm 16:52 Mostly Cloudy 84 28.9 67 19.4 57 57 NW 9 15 30.03 1017 10 16 0.00 0.00
5:52 pm 17:52 Mostly Cloudy 85 29.4 66 18.9 53 53 NNW 10 17 30.03 1017 10 16 0.00 0.00
6:52 pm 18:52 Mostly Cloudy 81 27.2 67 19.4 62 62 N 10 17 30.04 1017 10 16 0.00 0.00
7:52 pm 19:52 Mostly Sunny 78 25.6 65 18.3 64 64 NE 9 15 30.05 1018 10 16 0.00 0.00
8:52 pm 20:52 Mostly Clear 75 23.9 66 18.9 74 74 NNE 7 11 30.06 1018 10 16 0.00 0.00
9:52 pm 21:52 Clear 73 22.8 66 18.9 79 79 N 5 7 30.08 1019 10 16 0.00 0.00
10:52 pm 22:52 Clear 70 21.1 66 18.9 87 87 N 5 7 30.08 1019 10 16 0.00 0.00
11:52 pm 23:52 Clear 67 19.4 65 18.3 93 93 N 5 7 30.09 1019 10 16 0.00 0.00

Powered by AerisWeather